Location: Arrien
(43.3167°N, 0.1500°W)
Time: 07:45:04
(UTC+00:00)

Cosmos 1544 Rocket - Pass Details

Date: 31 May 2022
Orbit: 603 x 631 km, 82.5° (Epoch: 02 July)

Event Time Altitude Azimuth Distance (km) Brightness Sun altitude
Rises 02:29:20 0° 332° (NNW) 2,902 7.4 -16.1°
Reaches altitude 10° 02:32:28 10° 308° (NW) 1,983 6.2 -15.8°
Maximum altitude 02:34:48 14° 276° (W) 1,706 5.5 -15.5°
Enters shadow 02:35:19 14° 268° (W) 1,719 5.5 -15.5°
